Location: Fort McMurray
(56.7330°N, 111.3830°W)
Time: 06:19:14
(UTC-07:00)

Envisat - Visible Passes

Search period start: 22 January 2019 00:00
Search period end: 01 February 2019 00:00
Orbit: 764 x 766 km, 98.2° (Epoch: 21 January)

Date Brightness Start Highest point End Pass type
(mag) Time Alt. Az. Time Alt. Az. Time Alt. Az.
22 Jan 5.8 06:51:28 10° NE 06:55:06 19° E 06:58:43 10° SE visible
22 Jan 3.1 18:13:32 10° SE 18:18:28 53° ENE 18:23:25 10° N visible
22 Jan 4.7 19:53:13 10° SSW 19:57:45 32° W 20:02:20 10° NNW visible
23 Jan 6.4 06:17:05 10° ENE 06:17:43 10° ENE 06:18:22 10° E visible
23 Jan 4.1 07:53:00 10° NNE 07:58:00 52° E 08:02:57 10° S visible
23 Jan 3.7 17:37:29 10° ESE 17:41:57 32° ENE 17:46:25 10° N visible
23 Jan 3.6 19:15:45 10° S 19:20:46 58° W 19:25:49 10° NNW visible
23 Jan 6.1 20:59:08 10° W 21:00:55 12° W 21:02:43 10° WNW visible
24 Jan 5.2 07:16:32 10° NNE 07:20:58 29° E 07:25:21 10° SSE visible
24 Jan 2.9 18:38:52 10° SSE 18:43:56 80° ENE 18:49:04 10° NNW visible
24 Jan 5.4 20:19:43 10° SW 20:23:35 22° W 20:27:29 10° NW visible
25 Jan 6.0 06:40:35 10° NE 06:43:44 16° E 06:46:52 10° ESE visible
25 Jan 3.3 18:02:29 10° SE 18:07:19 45° ENE 18:12:09 10° N visible
25 Jan 4.4 19:41:44 10° SSW 19:46:28 38° W 19:51:13 10° NNW visible
26 Jan 4.4 07:41:51 10° NNE 07:46:44 43° E 07:51:34 10° S visible
26 Jan 3.9 17:26:35 10° ESE 17:30:50 28° NE 17:35:06 10° N visible
26 Jan 3.3 19:04:27 10° S 19:09:31 69° WSW 19:14:37 10° NNW visible
26 Jan 5.9 20:46:51 10° WSW 20:49:32 14° W 20:52:13 10° NW visible
27 Jan 5.5 07:05:29 10° NE 07:09:38 24° E 07:13:45 10° SE visible
27 Jan 2.9 18:27:43 10° SSE 18:32:45 68° ENE 18:37:49 10° NNW visible
27 Jan 5.1 20:08:04 10° SW 20:12:15 25° W 20:16:28 10° NW visible
28 Jan 6.1 06:29:51 10° NE 06:32:21 14° E 06:34:50 10° ESE visible
28 Jan 3.4 17:51:29 10° SE 17:56:10 39° ENE 18:00:53 10° N visible
28 Jan 4.1 19:30:18 10° S 19:35:10 45° W 19:40:05 10° NNW visible
29 Jan 4.8 07:30:43 10° NNE 07:35:26 36° E 07:40:07 10° SSE visible
29 Jan 3.1 18:53:11 10° SSE 18:58:17 82° WSW 19:03:25 10° NNW visible
29 Jan 5.7 20:34:52 10° SW 20:38:09 17° W 20:41:26 10° NW visible
30 Jan 5.8 06:54:29 10° NE 06:58:17 21° E 07:02:04 10° SE visible
30 Jan 3.0 18:16:36 10° SE 18:21:34 57° ENE 18:26:34 10° N visible
30 Jan 4.9 19:56:29 10° SSW 20:00:56 30° W 20:05:25 10° NNW visible
31 Jan 6.3 06:19:28 10° ENE 06:20:56 11° E 06:22:24 10° E visible
31 Jan 3.6 17:40:31 10° ESE 17:45:02 34° ENE 17:49:35 10° N visible
31 Jan 3.7 19:18:56 10° S 19:23:55 54° W 19:28:55 10° NNW visible
31 Jan 6.2 21:02:54 10° W 21:04:08 11° W 21:05:23 10° WNW visible
